Beatrice, NE

11:58 AM CDT on June 22, 2017 (GMT -0500)
Beatrice Municipal

Weather History for KBIE - April, 2013

Change the Weather History Date:

Friday, April 5, 2013

  Actual Average Record
Temperature  
Mean Temperature 55 °F -  
Max Temperature 72 °F 60 °F 83 °F (1967)
Min Temperature 38 °F 33 °F 19 °F (1968)
Degree Days  
Heating Degree Days 10    
Growing Degree Days 5 (Base 50)    
Moisture  
Dew Point 30 °F    
Average Humidity 43    
Maximum Humidity 71    
Minimum Humidity 16    
Precipitation  
Precipitation 0.00 in - - ()
Sea Level Pressure  
Sea Level Pressure 29.98 in    
Wind  
Wind Speed 10 mph (SE)    
Max Wind Speed 26 mph    
Max Gust Speed 37 mph    
Visibility 10 miles    
Events      
Averages and records for this station are not official NWS values.
T = Trace of Precipitation, MM = Missing Value Source: NWS Daily Summary

Daily Weather History Graph

Daily Weather History Graph

Search for Another Location

Airport or City:

Trip Planner

Search our weather history database for the weather conditions in past years. The results will help you decide how hot, cold, wet, or windy it might be!

Date:

Astronomy

Apr. 05, 2013 Rise Set
Actual Time 7:03 AM CDT 7:55 PM CDT
Civil Twilight 6:36 AM CDT 8:23 PM CDT
Nautical Twilight 6:03 AM CDT 8:56 PM CDT
Astronomical Twilight 5:29 AM CDT 9:30 PM CDT
Moon 4:12 AM CDT (4/5) 3:20 PM CDT (4/5)
Length of Visible Light 13h 47m
Length of Day
12h 51m
Waning Crescent, 23% of the Moon is Illuminated
Apr 5
Waning Crescent
Apr 10
New
Apr 18
First Quarter
Apr 25
Full
May 2
Last Quarter

Hourly Weather History & Observations

Time (CDT) Temp. Windchill Dew Point Humidity Pressure Visibility Wind Dir Wind Speed Gust Speed Precip Events Conditions
12:15 AM 43.7 °F 40.3 °F 32.0 °F 63% 30.11 in 10.0 mi NNE 5.8 mph - N/A   Clear
12:35 AM 43.3 °F 40.7 °F 32.0 °F 64% 30.12 in 7.0 mi NE 4.6 mph - N/A   Clear
12:55 AM 43.7 °F 42.1 °F 32.0 °F 63% 30.12 in 7.0 mi ENE 3.5 mph - N/A   Clear
1:15 AM 42.8 °F - 31.3 °F 64% 30.12 in 10.0 mi Calm Calm - N/A   Clear
1:35 AM 41.2 °F - 30.9 °F 67% 30.12 in 10.0 mi Calm Calm - N/A   Clear
1:55 AM 42.1 °F - 31.1 °F 65% 30.12 in 10.0 mi Calm Calm - N/A   Clear
2:15 AM 40.3 °F 38.2 °F 30.9 °F 69% 30.12 in 10.0 mi East 3.5 mph - N/A   Clear
2:35 AM 40.8 °F 38.8 °F 31.5 °F 69% 30.12 in 10.0 mi ENE 3.5 mph - N/A   Clear
2:55 AM 40.3 °F 36.3 °F 31.1 °F 70% 30.12 in 10.0 mi ENE 5.8 mph - N/A   Clear
3:15 AM 41.4 °F 37.6 °F 30.6 °F 65% 30.12 in 10.0 mi ENE 5.8 mph - N/A   Clear
3:35 AM 40.8 °F 38.8 °F 30.0 °F 65% 30.12 in 10.0 mi East 3.5 mph - N/A   Clear
3:55 AM 39.4 °F 35.2 °F 30.0 °F 69% 30.10 in 10.0 mi East 5.8 mph - N/A   Clear
4:15 AM 40.6 °F 36.7 °F 30.0 °F 66% 30.09 in 10.0 mi East 5.8 mph - N/A   Clear
4:35 AM 41.4 °F 37.6 °F 29.8 °F 64% 30.11 in 10.0 mi ENE 5.8 mph - N/A   Clear
4:55 AM 39.4 °F 36.1 °F 29.5 °F 68% 30.12 in 10.0 mi ENE 4.6 mph - N/A   Clear
5:15 AM 40.5 °F 37.3 °F 29.7 °F 65% 30.14 in 10.0 mi East 4.6 mph - N/A   Clear
5:35 AM 40.1 °F 36.9 °F 29.7 °F 66% 30.14 in 10.0 mi East 4.6 mph - N/A   Clear
5:55 AM 39.2 °F 35.0 °F 29.5 °F 68% 30.13 in 10.0 mi East 5.8 mph - N/A   Clear
6:15 AM 38.8 °F 34.6 °F 29.7 °F 70% 30.13 in 10.0 mi East 5.8 mph - N/A   Clear
6:35 AM 38.3 °F 34.8 °F 29.5 °F 71% 30.13 in 10.0 mi East 4.6 mph - N/A   Clear
6:55 AM 38.7 °F 35.2 °F 29.8 °F 71% 30.14 in 10.0 mi East 4.6 mph - N/A   Clear
7:15 AM 38.7 °F 35.2 °F 29.8 °F 71% 30.14 in 10.0 mi East 4.6 mph - N/A   Clear
7:35 AM 39.2 °F 33.6 °F 30.0 °F 70% 30.14 in 10.0 mi East 8.1 mph - N/A   Clear
7:55 AM 40.5 °F 35.1 °F 30.6 °F 68% 30.13 in 10.0 mi East 8.1 mph - N/A   Clear
8:15 AM 42.3 °F 36.8 °F 31.1 °F 65% 30.14 in 10.0 mi ESE 9.2 mph - N/A   Clear
8:35 AM 43.9 °F 38.8 °F 31.1 °F 61% 30.13 in 10.0 mi ESE 9.2 mph - N/A   Clear
8:55 AM 45.5 °F 38.6 °F 31.3 °F 58% 30.12 in 10.0 mi ESE 16.1 mph - N/A   Clear
9:15 AM 47.1 °F - 31.5 °F 55% 30.12 in 10.0 mi SE 16.1 mph 20.7 mph N/A   Clear
9:35 AM 48.7 °F - 31.6 °F 52% 30.11 in 10.0 mi SE 12.7 mph - N/A   Clear
9:55 AM 50.2 °F - 31.5 °F 49% 30.11 in 10.0 mi SE 15.0 mph 18.4 mph N/A   Clear
10:15 AM 52.2 °F - 32.0 °F 46% 30.10 in 10.0 mi SE 13.8 mph 18.4 mph N/A   Clear
10:35 AM 53.1 °F - 32.0 °F 45% 30.10 in 10.0 mi SSE 12.7 mph - N/A   Clear
10:55 AM 55.4 °F - 32.2 °F 41% 30.08 in 10.0 mi SSE 13.8 mph - N/A   Clear
11:15 AM 57.4 °F - 32.7 °F 39% 30.08 in 10.0 mi SSE 12.7 mph - N/A   Clear
11:35 AM 58.5 °F - 32.2 °F 37% 30.06 in 10.0 mi SE 11.5 mph - N/A   Clear
11:55 AM 60.6 °F - 32.9 °F 35% 30.06 in 10.0 mi South 13.8 mph - N/A   Clear
12:15 PM 62.4 °F - 32.7 °F 33% 30.05 in 10.0 mi SSE 13.8 mph 17.3 mph N/A   Clear
12:35 PM 63.9 °F - 32.0 °F 30% 30.03 in 10.0 mi South 18.4 mph - N/A   Clear
12:55 PM 65.1 °F - 32.2 °F 29% 30.02 in 10.0 mi South 16.1 mph 21.9 mph N/A   Clear
1:15 PM 66.6 °F - 32.2 °F 28% 30.00 in 10.0 mi South 17.3 mph 20.7 mph N/A   Clear
1:35 PM 67.8 °F - 30.4 °F 25% 29.98 in 10.0 mi South 18.4 mph 25.3 mph N/A   Clear
1:55 PM 68.9 °F - 29.7 °F 23% 29.97 in 10.0 mi SSE 19.6 mph 27.6 mph N/A   Clear
2:15 PM 69.3 °F - 30.6 °F 24% 29.95 in 10.0 mi South 18.4 mph 24.2 mph N/A   Clear
2:35 PM 71.2 °F - 28.9 °F 21% 29.93 in 10.0 mi South 20.7 mph 28.8 mph N/A   Clear
2:55 PM 72.1 °F - 26.4 °F 18% 29.91 in 10.0 mi South 19.6 mph 28.8 mph N/A   Clear
3:15 PM 72.9 °F - 23.2 °F 16% 29.89 in 10.0 mi South 23.0 mph 34.5 mph N/A   Clear
3:35 PM 72.7 °F - 25.5 °F 17% 29.88 in 10.0 mi South 19.6 mph 27.6 mph N/A   Clear
3:55 PM 71.8 °F - 23.7 °F 17% 29.86 in 10.0 mi South 19.6 mph 31.1 mph N/A   Clear
4:15 PM 72.5 °F - 23.2 °F 16% 29.84 in 10.0 mi South 26.5 mph 33.4 mph N/A   Clear
4:35 PM 72.0 °F - 23.4 °F 16% 29.83 in 10.0 mi South 23.0 mph 28.8 mph N/A   Clear
4:55 PM 71.2 °F - 23.9 °F 17% 29.83 in 10.0 mi South 21.9 mph 34.5 mph N/A   Clear
5:15 PM 71.1 °F - 23.5 °F 17% 29.82 in 10.0 mi South 21.9 mph 32.2 mph N/A   Clear
5:35 PM 71.1 °F - 24.3 °F 17% 29.82 in 10.0 mi South 23.0 mph 29.9 mph N/A   Clear
5:55 PM 69.4 °F - 24.6 °F 19% 29.81 in 10.0 mi South 20.7 mph 27.6 mph N/A   Clear
6:15 PM 68.7 °F - 25.9 °F 20% 29.81 in 10.0 mi South 19.6 mph 27.6 mph N/A   Clear
6:35 PM 68.2 °F - 25.5 °F 20% 29.81 in 10.0 mi South 18.4 mph 27.6 mph N/A   Clear
6:55 PM 67.1 °F - 26.4 °F 22% 29.81 in 10.0 mi South 17.3 mph 26.5 mph N/A   Clear
7:15 PM 65.8 °F - 27.7 °F 24% 29.79 in 10.0 mi South 16.1 mph 21.9 mph N/A   Clear
7:35 PM 65.1 °F - 27.9 °F 25% 29.78 in 10.0 mi South 16.1 mph 23.0 mph N/A   Clear
7:55 PM 64.6 °F - 28.0 °F 25% 29.77 in 10.0 mi South 19.6 mph 25.3 mph N/A   Clear
8:15 PM 64.2 °F - 28.2 °F 26% 29.77 in 10.0 mi South 19.6 mph 27.6 mph N/A   Clear
8:35 PM 63.7 °F - 28.4 °F 26% 29.76 in 10.0 mi South 19.6 mph 24.2 mph N/A   Clear
8:55 PM 63.1 °F - 28.8 °F 27% 29.76 in 10.0 mi South 15.0 mph 21.9 mph N/A   Clear
9:15 PM 61.7 °F - 30.4 °F 31% 29.75 in 10.0 mi SSE 11.5 mph 17.3 mph N/A   Clear
9:35 PM 62.6 °F - 32.0 °F 32% 29.75 in 10.0 mi South 18.4 mph 31.1 mph N/A   Clear
9:55 PM 61.7 °F - 31.1 °F 32% 29.74 in 10.0 mi South 17.3 mph 23.0 mph N/A   Clear
10:15 PM 62.2 °F - 31.5 °F 31% 29.74 in 10.0 mi South 21.9 mph 27.6 mph N/A   Scattered Clouds
10:35 PM 62.2 °F - 32.0 °F 32% 29.72 in 10.0 mi South 25.3 mph 36.8 mph N/A   Scattered Clouds
10:55 PM 62.1 °F - 32.4 °F 33% 29.72 in 10.0 mi South 24.2 mph 35.7 mph N/A   Clear
11:15 PM 61.7 °F - 32.9 °F 34% 29.73 in 10.0 mi South 18.4 mph 27.6 mph N/A   Clear
11:35 PM 61.2 °F - 33.8 °F 36% 29.73 in 10.0 mi South 16.1 mph 25.3 mph N/A   Clear
11:55 PM 60.8 °F - 34.3 °F 37% 29.73 in 10.0 mi South 17.3 mph 24.2 mph N/A   Clear